Regional Weather Roundup
Issued by NWS

Home | Current Version | Previous Version | Text Only | Print | Product List | Glossary Off
Versions: 1 2 3 4 5 6 7 8 9 10 11 12 13 14 15 16 17 18 19 20 21 22 23 24 25 26 27 28 29 30 31 32 33 34 35 36 37 38 39 40 41 42 43 44 45 46 47 48 49 50

000
ASUS43 KMPX 211701
RWRMN
WEATHER ROUNDUP FOR MINNESOTA
NATIONAL WEATHER SERVICE TWIN CITIES/CHANHASSEN MN
1100 AM CST SUN DEC 21 2014


NOTE: "FAIR" INDICATES FEW OR NO CLOUDS BELOW 12,000 FEET WITH NO
SIGNIFICANT WEATHER AND/OR OBSTRUCTIONS TO VISIBILITY. N/A MEANS
CURRENT SKY AND/OR WEATHER CONDITIONS ARE NOT AVAILABLE.

MNZ060>063-068>070-211800-
   Twin Cities Metro

CITY           SKY/WX    TMP DP  RH WIND       PRES   REMARKS
TWIN CITIES    LGTSLEET  34  33  96 SE13      29.85F FOG     WCI  25
ST PAUL        LGT SNOW  33  33 100 SE10      29.87F FOG     WCI  25
CRYSTAL        MIX PCPN  35  33  92 SE12      29.84F FOG     WCI  27
BLAINE         LGT SNOW  36  36 100 SE12      29.85F VSB 1
LAKEVILLE      LGT RAIN  34  34 100 S8        29.85F WCI  27
EDEN PRAIRIE   LGT RAIN  35  34  96 S12       29.83F FOG     WCI  27
SOUTH ST PAUL  LGT SNOW  34  33  96 SE8       29.86F WCI  27
LAKE ELMO      LGT SNOW  34  34 100 SE9       29.87F WCI  26
$$
MNZ001>005-007-008-013>017-022>024-027-028-211800-
   Northwest Minnesota

CITY           SKY/WX    TMP DP  RH WIND       PRES   REMARKS
BEMIDJI        CLOUDY    30  28  95 S10G16    29.73F FOG     WCI  21
HALLOCK        CLOUDY    30  30 100 CALM      29.67S FOG
ROSEAU         CLOUDY    30  27  86 S14       29.70F FOG     WCI  20
WARROAD        SNOW      30  27  86 S6        29.71F VSB 1/2 WCI  24
THIEF RVR FALL CLOUDY    30  28  93 S16       29.70F WCI  19
CROOKSTON      CLOUDY    30  28  93 S20       29.71F FOG     WCI  18
FOSSTON        CLOUDY    28  27  93 S14       29.71F FOG     WCI  17
DETROIT LAKES  CLOUDY    32  30  93 S14       29.71F FOG     WCI  22
MOORHEAD       CLOUDY    32  32 100 S20       29.71F FOG     WCI  20
PARK RAPIDS    CLOUDY    31  29  92 S12       29.73F FOG     WCI  22
MAHNOMEN       CLOUDY    30  28  94 S12       29.71F FOG     WCI  20
$$
MNZ006-009>011-018-025>026-211800-
   North Central Minnesota

CITY           SKY/WX    TMP DP  RH WIND       PRES   REMARKS
BAUDETTE       LGT SNOW  31  28  89 S9        29.72F FOG     WCI  23
FLAG ISLAND    CLOUDY    28  28 100 SE16      29.70F FOG     WCI  17
INTL FALLS     CLOUDY    30  28  92 VRB7      29.77F FOG     WCI  23
WASKISH        CLOUDY    30  30 100 CALM      29.74F
BIG FORK       MIX PCPN  30  28  93 S12       29.77F WCI  21
LONGVILLE      CLOUDY    30  30 100 S8        29.77F FOG     WCI  23
GRAND RAPIDS   CLOUDY    30  28  93 S14G20    29.79F WCI  20
CRANE LAKE     LGT SNOW  28  27  93 S8G16     29.83F WCI  20
ORR            CLOUDY    28  27  93 S14       29.77F WCI  17
COOK           CLOUDY    30  28  93 S10G20    29.81F FOG     WCI  21
WALKER         CLOUDY    29  28  96 S12       29.76S FOG     WCI  20
$$
MNZ012-019>021-037-211800-
   Northeast Minnesota

CITY           SKY/WX    TMP DP  RH WIND       PRES   REMARKS
DULUTH         FOG       31  28  89 SE12      29.85S VSB 3/4 WCI  22
ELY            CLOUDY    28  27  93 S12G18    29.83F WCI  18
HIBBING        CLOUDY    31  27  85 S9        29.81F FOG     WCI  23
EVELETH        CLOUDY    32  32 100 S9        29.83F FOG     WCI  24
DULUTH HARBOR  CLOUDY    34  30  86 CALM      29.90F
SILVER BAY     CLOUDY    32  28  86 SE6       29.88F FOG     WCI  26
GRAND MARAIS     N/A     35  29  78 S13       29.95F WCI  26
G MARAIS ARPRT LGT SNOW  27  25  93 SE9       29.89F WCI  17
$$
MNZ029>031-032-039>041-046>048-054>057-064-211800-
   West Central Minnesota

CITY           SKY/WX    TMP DP  RH WIND       PRES   REMARKS
FERGUS FALLS   CLOUDY    30  30 100 SE14      29.74F FOG     WCI  20
WHEATON        CLOUDY    30  28  93 SE15      29.73F FOG     WCI  19
MORRIS         CLOUDY    34  30  86 S17       29.71F FOG     WCI  23
ALEXANDRIA     CLOUDY    31  30  96 S16       29.73F FOG     WCI  20
ELBOW LAKE     CLOUDY    31  30  97 SE14      29.72F FOG     WCI  20
WADENA         CLOUDY    28  28 100 SE7       29.74F FOG     WCI  21
GLENWOOD       FOG       32  30  93 SE14      29.74F VSB 1/4 WCI  22
APPLETON       CLOUDY    34  32  93 SE13      29.73F FOG     WCI  25
BENSON         CLOUDY    34  30  86 S10       29.74F FOG     WCI  26
ORTONVILLE     CLOUDY    32  28  86 SE12G17   29.71S FOG     WCI  23
MADISON        CLOUDY    36  36 100 S12       29.73F FOG
WILLMAR        FOG       34  34 100 SE10      29.77F VSB 1/4 WCI  26
$$
MNZ033>034-036-042>043-049>051-058-059-211800-
   Central Minnesota

CITY           SKY/WX    TMP DP  RH WIND       PRES   REMARKS
ST CLOUD       FOG       35  32  88 SE14      29.80F VSB 3/4 WCI  26
SAUK CENTRE    FOG       32  32 100 SE10G18   29.75F VSB 1/4 WCI  23
PAYNESVILLE    FOG       30  31 100 E9        29.77F VSB 1/2 WCI  22
AITKIN         CLOUDY    36  28  75 SE9       29.78F HAZE
PINE RIVER     CLOUDY    30  30 100 S8        29.81F FOG     WCI  23
BRAINERD       CLOUDY    32  31  96 S7        29.78F FOG     WCI  26
STAPLES        CLOUDY    30  30 100 SE8       29.76F FOG     WCI  23
LONG PRAIRIE   FOG       32  32 100 SE14      29.75F VSB 1/4 WCI  22
LITTLE FALLS   FOG       32  32 100 SE10      29.77F VSB 3/4 WCI  24
LITCHFIELD     FOG       36  36 100 SE6       29.79F VSB 1/4
BUFFALO        DRIZZLE   34  33  95 SE8       29.83F WCI  27
MAPLE LAKE     SNOW      34  34  99 SE5       29.82F VSB 1/2 WCI  30
$$
MNZ037-044-045-052-053-211800-
   East Central Minnesota

CITY           SKY/WX    TMP DP  RH WIND       PRES   REMARKS
PRINCETON      CLOUDY    34  34 100 SE7       29.83F FOG     WCI  28
MORA           CLOUDY    32  30  93 SE7       29.85F VSB 1/2 WCI  26
CAMBRIDGE      LGT SNOW  36  28  75 SE6       29.83F
RUSH CITY      CLOUDY    32  32  99 SE6       29.86F FOG     WCI  26
MOOSE LAKE     CLOUDY    32  32 100 S6        29.83F FOG     WCI  26
HINCKLEY       FOG       32  32 100 SE8       29.85F VSB 1   WCI  25
CLOQUET        FOG       30  30 100 SE5       29.84F VSB 1   WCI  25
MCGREGOR       CLOUDY    32  32 100 SE12G17   29.81F WCI  23
$$
MNZ071>073-080-081-089-090-097-098-211800-
   Southwest Minnesota

CITY           SKY/WX    TMP DP  RH WIND       PRES   REMARKS
MONTEVIDEO     CLOUDY    34  34 100 S8        29.75F FOG     WCI  27
GRANITE FALLS  CLOUDY    33  33  99 SE8       29.76F FOG     WCI  26
CANBY          CLOUDY    33  32  94 SE6       29.73F FOG     WCI  28
MARSHALL       CLOUDY    34  30  86 S8        29.74F WCI  27
REDWOOD FALLS  CLOUDY    34  34 100 S12       29.76F FOG     WCI  25
OLIVIA         FOG       34  32  93 S9        29.76F VSB 1/2 WCI  26
PIPESTONE      SNOW      34  34 100 S3        29.71F VSB 1/4
WINDOM         CLOUDY    36  36 100 S9G16     29.75F FOG
WORTHINGTON    CLOUDY    34 N/A N/A S15G21    29.75F VSB 3/4 WCI  24
JACKSON        CLOUDY    36  34  93 S12       29.78F FOG
TRACY          CLOUDY    35  34  96 S10G16    29.73F FOG     WCI  27
SLAYTON        FOG       33  33 100 S8        29.73S VSB 3/4 WCI  26
$$
MNZ065>067-074>077-082>085-091>093-211800-
   South Central Minnesota

CITY           SKY/WX    TMP DP  RH WIND       PRES   REMARKS
MANKATO        CLOUDY    36  32  87 S14       29.82F
NEW ULM        FOG       34  34 100 S9        29.79F VSB 1   WCI  26
ST JAMES       CLOUDY    36  36 100 S10       29.81F FOG
FAIRMONT       CLOUDY    36  32  87 S14       29.80F
GLENCOE        FOG       35  36 100 SE9       29.81F VSB 1/2 WCI  28
FARIBAULT      FOG       36  34  93 SE15      29.85F VSB 3/4
OWATONNA       FOG       36  34  93 S15G21    29.85F VSB 3/4
WASECA         FOG       34  34 100 S16       29.86F VSB 3/4 WCI  23
ALBERT LEA     FOG       36  36 100 S16G22    29.84F VSB 3/4
$$
MNZ078>079-086>088-094>096-211800-
   Southeast Minnesota

CITY           SKY/WX    TMP DP  RH WIND       PRES   REMARKS
ROCHESTER      CLOUDY    35  34  96 S17G26    29.88F FOG     WCI  25
RED WING       LGT RAIN  36  34  93 SE8       29.88F
STANTON        CLOUDY    36  34  92 S14       29.85F FOG
DODGE CENTER   CLOUDY    36  36 100 S18       29.86F FOG
WINONA         CLOUDY    36  34  93 SE8       29.94F FOG
AUSTIN         CLOUDY    36  36 100 S15G23    29.86F FOG
PRESTON        FOG       34  33  98 S16G23    29.91F VSB 1   WCI  23
$$
ABBREVIATIONS USED IN REMARKS
   TC - TEMPERATURES IN CELSIUS
  WCI - WIND CHILL INDEX
   HX - HEAT INDEX
  VSB - VISIBILITY
$$



USA.gov is the U.S. government's official web portal to all federal, state and local government web resources and services.